Location: Erdweis
(48.5167°N, 15.3500°E)
Time: 06:52:15
(UTC+00:00)

Cosmos 1025 Rocket - Pass Details

Date: 18 September 2020
Orbit: 595 x 617 km, 82.5° (Epoch: 23 October)

Event Time Altitude Azimuth Distance (km) Brightness Sun altitude
Rises 18:45:39 0° 348° (NNW) 2,885 7.0 -17.1°
Reaches altitude 10° 18:47:53 10° 346° (NNW) 1,979 6.1 -17.5°
Maximum altitude 18:52:15 71° 263° (W) 653 3.3 -18.1°
Enters shadow 18:56:08 13° 181° (S) 1,785 5.2 -18.7°
